Weather History for Mora, MN

Change the Weather History Date:

Tuesday, December 18, 2012

  Actual Average Record
Temperature  
Mean Temperature 22 °F -  
Max Temperature 28 °F 24 °F 50 °F (1997)
Min Temperature 17 °F 1 °F -52 °F (1983)
Degree Days  
Heating Degree Days 42    
Moisture  
Dew Point 19 °F    
Average Humidity 89    
Maximum Humidity 93    
Minimum Humidity 69    
Precipitation  
Precipitation 0.00 in - - ()
Sea Level Pressure  
Sea Level Pressure 29.71 in    
Wind  
Wind Speed 1 mph (SSE)    
Max Wind Speed 6 mph    
Max Gust Speed -    
Visibility 8 miles    
Events Snow    
Averages and records for this station are not official NWS values.
T = Trace of Precipitation, MM = Missing Value Source: NWS Daily Summary

Daily Weather History Graph

Daily Weather History Graph

Search for Another Location

Airport:

Trip Planner

Search our weather history database for the weather conditions in past years. The results will help you decide how hot, cold, wet, or windy it might be!

Date:

Astronomy

Dec. 18, 2012 Rise Set
Actual Time 7:50 AM CST 4:29 PM CST
Civil Twilight 7:15 AM CST 5:04 PM CST
Nautical Twilight 6:37 AM CST 5:42 PM CST
Astronomical Twilight 6:01 AM CST 6:18 PM CST
Moon 11:13 AM CST (12/18) 11:15 PM CST (12/18)
Length of Visible Light 9h 48m
Length of Day
8h 39m
Waxing Crescent, 35% of the Moon is Illuminated
Dec 18
Waxing Crescent
Dec 19
First Quarter
Dec 28
Full
Jan 4
Last Quarter
Jan 11
New

Hourly Weather History & Observations

Time (CST) Temp. Windchill Dew Point Humidity Pressure Visibility Wind Dir Wind Speed Gust Speed Precip Events Conditions
12:02 AM 19.4 °F - 17.6 °F 93% 29.70 in 7.0 mi Calm Calm - N/A   Overcast
12:22 AM 19.4 °F 14.3 °F 17.6 °F 93% 29.70 in 7.0 mi South 3.5 mph - N/A   Overcast
12:41 AM 19.4 °F - 17.6 °F 93% 29.70 in 5.0 mi Calm Calm - N/A   Overcast
1:02 AM 19.4 °F - 17.6 °F 93% 29.70 in 5.0 mi Calm Calm - N/A   Overcast
1:22 AM 19.4 °F - 17.6 °F 93% 29.69 in 5.0 mi Calm Calm - N/A   Overcast
1:42 AM 19.4 °F 14.3 °F 17.6 °F 93% 29.70 in 7.0 mi SSE 3.5 mph - N/A   Overcast
2:02 AM 19.4 °F - 17.6 °F 93% 29.70 in 5.0 mi Calm Calm - N/A   Overcast
2:22 AM 19.4 °F - 17.6 °F 93% 29.69 in 5.0 mi Calm Calm - N/A   Overcast
2:42 AM 19.4 °F - 17.6 °F 93% 29.70 in 5.0 mi Calm Calm - N/A   Overcast
3:02 AM 19.4 °F 14.3 °F 17.6 °F 93% 29.69 in 5.0 mi ESE 3.5 mph - N/A   Overcast
3:22 AM 19.4 °F - 17.6 °F 93% 29.70 in 5.0 mi Calm Calm - N/A   Overcast
3:42 AM 19.4 °F 14.3 °F 17.6 °F 93% 29.69 in 5.0 mi East 3.5 mph - N/A   Overcast
4:02 AM 19.4 °F 14.3 °F 17.6 °F 93% 29.68 in 5.0 mi East 3.5 mph - N/A   Overcast
4:22 AM 19.4 °F 14.3 °F 17.6 °F 93% 29.67 in 7.0 mi East 3.5 mph - N/A   Overcast
4:42 AM 19.4 °F - 17.6 °F 93% 29.67 in 7.0 mi Calm Calm - N/A   Overcast
5:22 AM 19.4 °F 12.8 °F 17.6 °F 93% 29.67 in 7.0 mi East 4.6 mph - N/A Snow Light Snow
5:42 AM 19.4 °F 11.5 °F 17.6 °F 93% 29.67 in 5.0 mi East 5.8 mph - N/A Snow Light Snow
6:02 AM 19.4 °F 14.3 °F 17.6 °F 93% 29.68 in 7.0 mi ESE 3.5 mph - N/A Snow Light Snow
6:21 AM 19.4 °F - 17.6 °F 93% 29.68 in 7.0 mi Calm Calm - N/A Snow Light Snow
6:42 AM 19.4 °F - 17.6 °F 93% 29.68 in 5.0 mi Calm Calm - N/A Snow Light Snow
7:02 AM 19.4 °F - 17.6 °F 93% 29.68 in 7.0 mi Calm Calm - N/A Snow Light Snow
7:22 AM 19.4 °F - 17.6 °F 93% 29.68 in 7.0 mi Calm Calm - N/A Snow Light Snow
7:42 AM 17.6 °F - 15.8 °F 93% 29.68 in 7.0 mi Calm Calm - N/A Snow Light Snow
8:02 AM 17.6 °F - 15.8 °F 93% 29.68 in 10.0 mi Calm Calm - N/A   Scattered Clouds
8:22 AM 17.6 °F - 14.0 °F 86% 29.68 in 10.0 mi Calm Calm - N/A   Clear
8:41 AM 17.6 °F - 15.8 °F 93% 29.69 in 10.0 mi Calm Calm - N/A   Scattered Clouds
9:02 AM 17.6 °F - 15.8 °F 93% 29.69 in 10.0 mi Calm Calm - N/A   Mostly Cloudy
9:22 AM 19.4 °F 14.3 °F 17.6 °F 93% 29.69 in 10.0 mi ENE 3.5 mph - N/A   Overcast
9:42 AM 19.4 °F - 17.6 °F 93% 29.69 in 10.0 mi Calm Calm - N/A   Scattered Clouds
10:02 AM 21.2 °F 16.4 °F 19.4 °F 93% 29.69 in 10.0 mi ENE 3.5 mph - N/A   Clear
10:22 AM 21.2 °F - 19.4 °F 93% 29.70 in 10.0 mi Calm Calm - N/A   Scattered Clouds
10:40 AM 23.0 °F 18.4 °F 21.2 °F 93% 29.70 in 10.0 mi NE 3.5 mph - N/A   Mostly Cloudy
11:02 AM 21.2 °F - 19.4 °F 93% 29.69 in 10.0 mi Calm Calm - N/A   Scattered Clouds
11:22 AM 23.0 °F 18.4 °F 21.2 °F 93% 29.69 in 10.0 mi East 3.5 mph - N/A   Scattered Clouds
11:42 AM 23.0 °F 18.4 °F 21.2 °F 93% 29.68 in 10.0 mi East 3.5 mph - N/A   Mostly Cloudy
12:02 PM 26.6 °F - 21.2 °F 80% 29.68 in 10.0 mi Calm Calm - N/A   Overcast
12:22 PM 24.8 °F - 21.2 °F 86% 29.67 in 10.0 mi Calm Calm - N/A   Overcast
12:42 PM 26.6 °F - 21.2 °F 80% 29.68 in 10.0 mi Calm Calm - N/A   Mostly Cloudy
1:02 PM 26.6 °F - 21.2 °F 80% 29.68 in 10.0 mi Calm Calm - N/A   Mostly Cloudy
1:22 PM 26.6 °F - 21.2 °F 80% 29.69 in 10.0 mi Calm Calm - N/A   Scattered Clouds
1:42 PM 26.6 °F - 21.2 °F 80% 29.68 in 10.0 mi Calm Calm - N/A   Scattered Clouds
2:02 PM 26.6 °F - 21.2 °F 80% 29.68 in 10.0 mi Calm Calm - N/A   Scattered Clouds
2:22 PM 26.6 °F - 21.2 °F 80% 29.68 in 10.0 mi Calm Calm - N/A   Scattered Clouds
2:42 PM 28.4 °F - 19.4 °F 69% 29.69 in 10.0 mi Calm Calm - N/A   Clear
3:02 PM 26.6 °F - 21.2 °F 80% 29.70 in 10.0 mi Calm Calm - N/A   Scattered Clouds
3:22 PM 26.6 °F - 21.2 °F 80% 29.69 in 10.0 mi Calm Calm - N/A   Overcast
3:42 PM 26.6 °F - 21.2 °F 80% 29.69 in 10.0 mi Calm Calm - N/A   Overcast
4:02 PM 26.6 °F - 21.2 °F 80% 29.69 in 10.0 mi Calm Calm - N/A   Overcast
4:22 PM 26.6 °F - 21.2 °F 80% 29.70 in 10.0 mi Calm Calm - N/A   Overcast
4:42 PM 26.6 °F 21.2 °F 21.2 °F 80% 29.71 in 10.0 mi SSW 4.6 mph - N/A   Overcast
5:02 PM 26.6 °F - 21.2 °F 80% 29.72 in 10.0 mi Calm Calm - N/A   Overcast
5:22 PM 26.6 °F 21.2 °F 21.2 °F 80% 29.72 in 10.0 mi SW 4.6 mph - N/A   Overcast
5:42 PM 26.6 °F 21.2 °F 21.2 °F 80% 29.73 in 10.0 mi WSW 4.6 mph - N/A   Overcast
6:02 PM 26.6 °F 21.2 °F 21.2 °F 80% 29.74 in 10.0 mi West 4.6 mph - N/A   Overcast
6:22 PM 26.6 °F 20.0 °F 21.2 °F 80% 29.75 in 10.0 mi West 5.8 mph - N/A   Overcast
6:42 PM 24.8 °F - 19.4 °F 80% 29.75 in 10.0 mi Calm Calm - N/A   Overcast
7:02 PM 24.8 °F 19.1 °F 21.2 °F 86% 29.75 in 10.0 mi WSW 4.6 mph - N/A   Overcast
7:22 PM 23.0 °F 18.4 °F 19.4 °F 86% 29.75 in 7.0 mi SW 3.5 mph - N/A   Overcast
7:42 PM 21.2 °F 16.4 °F 17.6 °F 86% 29.76 in 7.0 mi South 3.5 mph - N/A   Scattered Clouds
8:02 PM 21.2 °F - 19.4 °F 93% 29.76 in 7.0 mi Calm Calm - N/A   Mostly Cloudy
8:22 PM 21.2 °F 13.6 °F 19.4 °F 93% 29.77 in 5.0 mi SW 5.8 mph - N/A   Mostly Cloudy
8:42 PM 21.2 °F - 19.4 °F 93% 29.78 in 5.0 mi Calm Calm - N/A   Mostly Cloudy
9:02 PM 21.2 °F 13.6 °F 19.4 °F 93% 29.79 in 5.0 mi WSW 5.8 mph - N/A   Overcast
9:22 PM 21.2 °F 16.4 °F 19.4 °F 93% 29.78 in 4.0 mi SW 3.5 mph - N/A   Overcast
9:42 PM 21.2 °F 16.4 °F 19.4 °F 93% 29.79 in 3.0 mi WSW 3.5 mph - N/A   Overcast
10:02 PM 21.2 °F - 19.4 °F 93% 29.79 in 4.0 mi Calm Calm - N/A   Overcast
10:22 PM 21.2 °F - 19.4 °F 93% 29.79 in 3.0 mi Calm Calm - N/A Snow Light Snow
10:42 PM 21.2 °F - 19.4 °F 93% 29.80 in 4.0 mi Calm Calm - N/A   Overcast
11:02 PM 21.2 °F - 19.4 °F 93% 29.79 in 3.0 mi Calm Calm - N/A Snow Light Snow
11:22 PM 21.2 °F - 19.4 °F 93% 29.79 in 3.0 mi Calm Calm - N/A Snow Light Snow
11:42 PM 21.2 °F 16.4 °F 19.4 °F 93% 29.80 in 5.0 mi SSW 3.5 mph - N/A   Overcast